Wind_Speed
37 35 31 29 28 28 29 29 29 28 28 32 33 33 34 35 38 38 39 41 44 48 50 51 54 57 59 59 59 59 58 58 57 55 53 52 50 49 48 47 46 45 43 41
35 32 30 28 28 28 29 29 29 28 26 28 29 29 30 32 33 34 36 38 42 45 47 49 52 54 57 59 59 59 58 58 57 56 54 52 51 50 49 48 46 45 44 42
35 32 30 28 28 29 28 27 26 26 25 25 26 25 26 29 31 32 35 36 39 43 45 48 51 53 55 57 58 59 58 57 57 56 54 52 51 51 50 48 47 46 45 44
34 33 31 29 27 28 26 26 26 24 23 22 21 22 21 26 29 31 33 34 36 41 43 46 49 52 53 56 57 58 58 57 57 57 55 52 51 51 50 49 48 48 47 45
34 32 31 29 27 26 24 24 23 21 20 18 17 19 18 23 25 27 30 33 35 37 41 44 47 51 52 54 56 58 58 57 56 56 55 53 51 51 51 50 49 48 47 45
33 31 31 30 28 25 23 23 21 19 16 15 13 15 16 20 23 25 28 29 32 37 39 41 45 49 51 52 55 57 58 57 56 56 55 54 51 51 51 49 48 47 47 45
34 32 31 30 28 25 23 22 20 17 15 14 13 14 13 16 21 24 26 27 30 35 37 39 42 46 49 51 54 56 58 57 57 56 55 55 52 51 51 49 48 47 46 45
36 33 31 29 28 26 22 20 18 17 15 14 13 13 13 14 18 22 24 25 28 32 35 38 40 44 48 50 53 55 56 56 57 57 55 54 52 50 50 50 48 47 46 45
36 33 31 29 28 25 22 20 19 18 17 16 14 13 13 14 17 21 23 25 27 31 33 36 39 42 47 49 51 54 55 55 56 57 56 56 52 50 49 49 49 47 46 45
36 33 31 29 27 24 22 20 19 18 18 18 16 15 14 14 17 20 23 25 26 29 33 36 39 40 44 47 50 53 55 56 55 56 57 56 54 51 50 49 49 48 46 46
36 34 32 29 26 24 21 19 19 19 19 20 19 17 17 16 18 20 23 24 27 29 31 35 38 40 44 46 49 53 54 54 56 56 56 56 53 52 50 50 49 49 47 46
36 33 32 30 27 24 21 20 19 19 20 21 22 20 18 19 20 21 23 24 26 29 29 32 36 40 43 46 49 52 53 54 55 56 57 58 54 52 52 50 49 49 48 47
37 34 33 31 29 25 22 21 21 21 21 21 22 21 20 21 22 23 24 25 26 28 31 31 35 39 42 45 47 50 52 53 54 55 56 57 55 53 52 51 49 48 48 47
37 35 33 32 29 27 24 22 22 22 23 23 22 21 20 21 23 25 26 27 28 28 31 32 33 37 41 45 46 48 51 52 53 54 54 55 54 54 52 51 50 49 49 48
38 36 33 31 29 27 24 23 23 24 24 25 23 22 19 22 24 26 28 29 29 29 31 32 34 36 40 45 46 47 49 50 52 54 54 55 54 53 53 52 50 50 49 48
38 36 34 31 28 26 25 23 24 25 26 26 26 23 21 22 25 26 28 30 31 31 32 33 34 36 39 43 45 46 48 48 51 52 53 54 54 53 52 51 50 50 49 49
38 35 33 31 29 27 24 23 24 25 26 27 26 24 23 23 25 27 28 29 31 32 33 34 36 36 37 41 43 46 48 48 49 50 52 53 54 54 53 51 50 49 49 49
38 36 35 33 30 27 25 24 24 25 25 26 26 25 24 24 25 26 28 29 30 31 33 34 36 38 39 40 42 44 47 48 49 50 51 51 52 53 53 52 51 50 49 48
38 36 36 34 32 29 27 26 26 26 26 26 26 26 25 25 25 26 27 29 30 31 32 34 35 37 39 41 42 44 45 47 49 49 50 50 52 53 52 52 51 50 49 48
38 37 36 34 33 31 29 28 27 27 27 26 26 26 26 26 26 26 28 29 29 30 31 33 35 36 38 41 43 44 44 45 47 48 49 50 52 52 52 52 52 51 51 49
38 37 36 34 34 32 30 29 28 28 27 26 26 26 26 25 25 26 27 28 28 29 30 33 35 35 38 40 43 43 43 44 45 47 49 49 50 51 52 51 50 50 50 49
39 38 36 35 34 33 32 31 30 29 28 27 27 27 27 26 26 26 26 27 28 29 30 32 35 36 37 40 42 43 42 44 45 46 48 49 50 49 49 49 49 48 47 48
39 38 37 35 34 34 33 32 31 30 29 28 28 28 27 27 27 27 27 28 28 30 31 32 34 36 37 39 42 43 43 44 44 45 46 47 47 48 49 48 47 47 47 47
39 38 37 36 33 33 33 33 32 30 29 29 28 28 28 27 27 28 27 29 30 31 31 31 33 34 35 37 40 42 43 45 44 45 46 47 47 47 47 47 46 46 45 44
38 39 38 36 34 34 33 33 31 29 29 29 28 28 28 28 26 27 27 28 29 29 30 31 33 33 34 36 39 40 42 43 44 45 46 46 48 47 47 47 45 44 43 42
38 39 39 36 35 34 33 32 30 30 29 29 28 28 29 29 28 27 28 28 28 29 30 31 32 33 34 36 38 40 40 42 43 44 44 45 46 47 47 46 45 44 44 43
Wind_Direction
332 329 325 317 310 305 301 297 292 290 280 275 271 261 251 245 242 235 231 230 226 224 222 220 219 218 217 217 218 218 219 218 219 221 221 223 224 225 226 225 226 227 229 231
334 331 328 321 315 311 307 302 296 293 287 279 272 262 250 243 239 234 230 227 224 222 221 220 218 217 217 216 217 218 218 218 219 220 221 221 223 224 225 225 226 227 229 231
337 335 332 326 319 313 309 305 303 298 293 283 275 263 248 238 237 234 231 228 225 223 221 219 219 218 216 216 216 217 218 219 219 219 220 220 222 223 224 225 226 227 229 230
339 337 335 332 324 318 311 307 307 302 295 288 275 264 249 239 236 234 231 229 227 223 222 220 219 218 217 216 216 217 218 219 219 220 220 221 222 223 224 225 227 228 229 231
339 338 338 335 329 322 315 313 309 306 297 288 274 265 256 242 237 233 229 227 228 223 223 221 219 217 217 216 216 216 217 219 219 219 220 220 221 222 223 224 226 228 229 231
337 336 337 336 332 326 321 319 313 305 297 288 277 270 260 244 239 232 229 227 227 224 223 222 220 218 216 216 216 216 216 218 218 218 219 220 221 222 223 224 225 227 229 230
337 336 335 334 332 328 323 320 318 309 298 290 282 277 263 250 242 235 230 228 226 223 223 222 220 220 218 217 217 216 216 218 218 219 219 220 221 223 223 223 225 227 229 231
337 335 335 332 330 327 322 317 314 307 298 288 283 279 266 257 246 238 234 231 227 224 223 221 221 220 219 218 218 216 216 218 218 219 219 220 221 223 223 224 225 227 229 232
335 333 332 330 329 327 322 315 308 297 292 288 284 278 271 259 250 240 235 233 230 227 225 222 221 220 219 218 218 217 217 217 218 219 220 221 222 223 224 225 226 227 229 231
334 330 331 329 326 324 320 316 307 297 288 287 282 280 276 261 253 245 239 237 234 228 226 224 223 221 219 218 218 218 217 217 218 220 220 221 222 224 223 225 226 226 228 231
332 330 329 328 324 319 314 311 305 294 284 282 279 274 271 265 255 248 240 239 237 233 228 226 224 223 220 218 217 217 218 218 218 219 220 221 222 223 224 226 226 227 228 231
331 328 327 327 324 317 309 306 301 291 283 280 279 275 269 264 257 250 244 240 238 236 231 227 225 223 221 219 218 218 219 219 220 220 220 220 221 223 224 225 227 228 229 232
330 327 324 323 322 316 306 300 297 291 284 282 281 277 271 265 257 251 245 241 238 236 232 230 226 224 222 219 218 219 220 220 220 220 220 220 221 222 224 224 226 228 230 232
326 324 322 319 315 311 303 297 292 289 286 283 281 277 270 263 257 251 246 241 238 237 233 231 229 226 223 220 219 219 220 221 221 221 221 220 222 222 223 224 226 228 231 233
324 322 319 317 313 307 299 293 290 287 285 284 281 277 274 264 258 252 246 242 240 238 236 233 230 227 224 221 220 220 221 221 221 221 221 221 221 223 224 225 226 229 231 233
321 320 318 315 312 306 297 291 288 286 284 284 281 278 277 268 262 256 249 245 244 241 238 236 231 227 225 223 221 220 221 222 221 222 222 222 222 223 223 225 227 230 231 233
320 318 316 314 310 304 297 294 288 286 286 283 280 279 275 269 264 260 253 248 246 242 240 238 233 229 227 225 223 222 222 222 222 222 221 222 222 222 224 225 227 229 231 233
319 316 314 313 310 304 301 292 288 287 287 283 280 277 275 270 265 260 255 249 246 243 241 237 233 230 228 226 225 223 222 222 222 222 221 221 221 222 224 225 227 229 231 233
317 314 313 312 307 303 298 294 291 287 287 285 280 277 273 267 263 260 257 252 248 245 241 237 233 230 229 227 226 224 223 223 222 221 221 221 222 223 225 226 227 229 230 232
314 312 310 309 306 304 301 295 292 290 290 286 282 279 273 268 264 260 255 253 250 246 241 236 233 231 230 228 226 225 224 224 224 223 221 221 222 224 225 227 228 229 231 232
310 308 307 305 303 303 301 296 293 290 290 287 283 278 272 267 263 260 256 253 252 248 243 237 234 233 230 227 225 224 224 224 225 225 223 222 223 225 226 227 228 229 231 232
306 305 303 301 300 301 299 295 291 289 286 285 283 279 274 268 263 260 256 254 252 248 245 239 235 234 231 227 225 223 223 224 224 225 224 224 225 226 227 228 228 229 231 233
303 302 299 297 297 297 296 294 290 288 285 283 282 278 275 270 264 260 256 255 252 249 246 241 237 233 231 228 226 224 223 224 224 225 225 226 226 226 227 229 231 231 232 233
302 298 295 294 295 293 293 292 289 287 284 282 281 278 274 272 266 261 257 255 252 248 244 240 235 232 229 227 225 225 223 223 223 225 226 227 227 227 228 229 231 232 233 235
301 297 294 293 293 291 291 290 287 284 283 282 281 278 274 269 266 262 258 255 253 249 242 237 234 231 228 227 226 224 223 222 223 224 225 226 227 227 228 229 230 232 233 236
298 295 293 293 291 289 290 288 285 283 281 279 278 276 273 269 267 264 259 255 253 248 242 237 234 233 229 227 226 225 224 223 223 223 223 224 227 227 228 228 229 231 232 234
Height
5628 5623 5616 5612 5607 5605 5602 5599 5597 5596 5593 5591 5590 5591 5593 5595 5597 5602 5607 5612 5619 5626 5633 5641 5649 5658 5668 5678 5688 5697 5706 5714 5722 5729 5736 5743 5750 5756 5761 5767 5772 5777 5782 5786
5624 5618 5612 5607 5603 5599 5595 5592 5589 5588 5586 5583 5582 5583 5585 5587 5590 5594 5599 5604 5610 5617 5624 5631 5639 5648 5657 5667 5677 5687 5696 5704 5713 5721 5728 5735 5741 5747 5753 5759 5764 5769 5774 5779
5620 5615 5608 5603 5599 5594 5590 5586 5582 5580 5579 5577 5576 5577 5580 5581 5584 5588 5592 5597 5602 5608 5615 5623 5631 5639 5648 5658 5667 5677 5686 5695 5703 5711 5718 5725 5731 5737 5744 5750 5756 5762 5766 5771
5617 5611 5605 5599 5594 5589 5586 5582 5577 5574 5572 5572 5572 5571 5576 5577 5579 5583 5587 5591 5595 5602 5608 5614 5622 5631 5639 5649 5658 5667 5676 5685 5693 5701 5709 5716 5723 5730 5737 5743 5748 5753 5758 5763
5613 5607 5601 5596 5590 5585 5581 5577 5574 5571 5568 5568 5569 5568 5572 5573 5575 5578 5582 5586 5590 5596 5601 5607 5614 5622 5631 5639 5648 5657 5667 5675 5684 5692 5700 5708 5715 5721 5728 5734 5739 5745 5750 5755
5611 5604 5598 5592 5587 5581 5577 5574 5571 5568 5566 5566 5566 5566 5568 5569 5571 5574 5577 5581 5584 5589 5595 5600 5607 5614 5622 5630 5639 5648 5657 5666 5674 5682 5691 5699 5706 5713 5719 5725 5731 5737 5742 5748
5607 5601 5595 5588 5584 5579 5575 5571 5568 5565 5564 5564 5563 5563 5566 5566 5567 5569 5572 5575 5579 5583 5588 5594 5601 5607 5615 5623 5631 5639 5648 5657 5665 5674 5682 5690 5697 5704 5710 5717 5723 5729 5734 5740
5602 5597 5592 5585 5580 5576 5572 5569 5567 5564 5562 5561 5561 5561 5563 5563 5563 5565 5567 5570 5574 5578 5582 5588 5594 5600 5607 5615 5623 5631 5640 5649 5657 5665 5673 5681 5688 5695 5702 5709 5715 5721 5727 5732
5597 5593 5588 5583 5577 5573 5569 5566 5564 5561 5559 5558 5558 5559 5560 5559 5559 5561 5563 5565 5569 5572 5577 5581 5587 5593 5599 5607 5614 5623 5632 5640 5648 5656 5664 5672 5679 5687 5694 5700 5707 5712 5718 5723
5593 5589 5585 5580 5575 5570 5567 5563 5561 5558 5556 5555 5555 5555 5556 5555 5556 5557 5559 5560 5563 5566 5570 5575 5580 5585 5592 5599 5606 5614 5622 5631 5639 5647 5655 5663 5671 5678 5685 5691 5698 5704 5710 5714
5589 5584 5580 5575 5571 5567 5563 5560 5557 5554 5553 5551 5550 5554 5552 5551 5551 5552 5553 5555 5557 5560 5564 5568 5572 5578 5584 5591 5598 5606 5613 5621 5629 5637 5646 5654 5662 5669 5676 5683 5689 5696 5701 5706
5584 5580 5575 5571 5567 5562 5558 5556 5553 5551 5549 5547 5545 5549 5547 5546 5546 5546 5548 5550 5552 5554 5557 5561 5565 5570 5576 5582 5589 5597 5605 5612 5620 5628 5636 5645 5652 5660 5667 5674 5681 5687 5692 5698
5579 5574 5569 5565 5563 5558 5554 5551 5548 5546 5543 5542 5541 5544 5541 5541 5540 5541 5542 5543 5545 5548 5551 5554 5558 5563 5568 5574 5581 5588 5596 5603 5611 5619 5627 5635 5643 5651 5658 5665 5672 5678 5684 5689
5573 5569 5565 5561 5556 5551 5548 5546 5543 5540 5538 5536 5536 5536 5536 5534 5534 5534 5535 5536 5538 5541 5544 5547 5551 5555 5560 5566 5573 5580 5587 5594 5602 5610 5617 5626 5634 5642 5650 5657 5663 5669 5675 5680
5568 5564 5559 5554 5549 5545 5542 5540 5538 5534 5532 5530 5530 5529 5529 5528 5527 5527 5528 5529 5531 5534 5537 5540 5543 5547 5552 5558 5565 5571 5578 5585 5593 5601 5609 5617 5625 5633 5641 5648 5654 5660 5666 5671
5562 5557 5552 5548 5544 5539 5536 5535 5532 5529 5526 5523 5522 5522 5522 5520 5519 5520 5521 5522 5524 5526 5529 5532 5535 5540 5544 5550 5556 5563 5570 5576 5584 5591 5600 5608 5616 5624 5631 5639 5645 5651 5657 5662
5555 5549 5544 5541 5537 5533 5530 5529 5525 5522 5520 5517 5515 5515 5513 5513 5512 5513 5513 5514 5516 5518 5521 5524 5527 5532 5537 5542 5548 5555 5561 5568 5575 5582 5590 5598 5606 5614 5622 5629 5636 5642 5648 5653
5548 5542 5537 5533 5530 5526 5526 5521 5518 5515 5513 5510 5508 5507 5506 5505 5505 5505 5506 5507 5508 5510 5512 5515 5519 5524 5529 5534 5540 5546 5552 5559 5566 5573 5580 5588 5596 5604 5612 5620 5626 5632 5638 5644
5540 5534 5529 5525 5520 5517 5517 5513 5510 5507 5506 5503 5501 5500 5499 5497 5497 5498 5498 5498 5500 5501 5504 5507 5511 5515 5520 5525 5531 5537 5543 5550 5556 5563 5571 5578 5587 5595 5603 5610 5617 5623 5629 5634
5532 5527 5522 5517 5511 5509 5510 5505 5501 5500 5498 5496 5493 5492 5490 5490 5490 5491 5490 5491 5492 5493 5495 5498 5502 5507 5511 5516 5522 5529 5535 5541 5547 5554 5562 5569 5577 5586 5593 5600 5607 5613 5619 5625
5524 5518 5514 5508 5503 5501 5500 5496 5493 5493 5491 5487 5485 5484 5483 5482 5482 5482 5482 5483 5484 5485 5487 5490 5494 5498 5503 5508 5514 5520 5526 5533 5539 5546 5553 5561 5568 5576 5584 5591 5597 5603 5610 5615
5515 5510 5505 5500 5496 5496 5491 5487 5485 5483 5481 5478 5477 5475 5475 5474 5474 5474 5474 5475 5475 5477 5479 5482 5485 5489 5494 5499 5505 5512 5518 5524 5531 5538 5545 5552 5559 5567 5574 5580 5587 5594 5599 5605
5505 5501 5495 5492 5491 5486 5481 5478 5475 5473 5471 5469 5468 5467 5466 5466 5465 5466 5466 5467 5468 5469 5471 5473 5477 5481 5485 5490 5496 5503 5510 5516 5523 5529 5536 5543 5550 5557 5564 5571 5577 5584 5590 5595
5495 5490 5484 5481 5480 5476 5472 5468 5466 5464 5462 5460 5459 5458 5457 5457 5456 5457 5458 5458 5459 5461 5462 5465 5468 5472 5477 5482 5488 5494 5501 5507 5514 5520 5527 5533 5540 5547 5555 5561 5568 5574 5580 5586
5484 5477 5473 5470 5469 5465 5462 5459 5456 5454 5452 5451 5450 5449 5448 5448 5448 5448 5449 5450 5451 5452 5454 5457 5460 5464 5468 5473 5479 5485 5491 5498 5504 5511 5518 5524 5531 5538 5545 5552 5558 5565 5571 5577
5473 5467 5462 5460 5458 5454 5452 5449 5447 5444 5443 5442 5440 5440 5439 5438 5438 5439 5439 5441 5442 5443 5445 5448 5452 5455 5460 5464 5470 5476 5482 5488 5495 5502 5508 5515 5521 5528 5535 5542 5549 5555 5562 5567